Location: Unspecified
(0.0000°N, 0.0000°E)
Time: 04:30:01
(UTC+00:00)

Courier 1B - All Passes

Search period start: 02 August 2014 00:00
Search period end: 12 August 2014 00:00
Orbit: 963 x 1209 km, 28.3° (Epoch: 01 August)

Date Brightness Start Highest point End Pass type
(mag) Time Alt. Az. Time Alt. Az. Time Alt. Az.
02 Aug - 00:19:08 10° NNW 00:23:22 15° NNE 00:27:33 10° NE night (unlit)
02 Aug - 02:11:10 10° NW 02:18:30 44° NNE 02:25:32 10° E visible
02 Aug - 04:05:27 10° WNW 04:12:54 58° SSW 04:19:57 10° SE visible
02 Aug - 06:02:54 10° WSW 06:07:27 18° SSW 06:11:52 10° SSE daylight
02 Aug - 13:45:05 10° SW 13:50:52 33° SSE 13:56:50 10° E daylight
02 Aug - 15:38:22 10° WSW 15:44:57 68° NNW 15:51:57 10° NE daylight
02 Aug - 17:34:34 10° WNW 17:39:31 21° NNW 17:44:42 10° NNE daylight
02 Aug - 23:26:35 10° N 23:29:02 12° NNE 23:31:29 10° NE night (unlit)
03 Aug - 01:17:35 10° NW 01:24:29 33° NNE 01:31:11 10° E night (unlit)
03 Aug - 03:11:16 10° WNW 03:19:01 80° SSW 03:26:23 10° SE visible
03 Aug - 05:07:39 10° W 05:13:28 24° SSW 05:19:02 10° SSE visible
03 Aug - 12:52:00 10° SSW 12:57:04 24° SSE 13:02:13 10° E daylight
03 Aug - 14:44:39 10° WSW 14:51:13 87° SSE 14:58:06 10° ENE daylight
03 Aug - 16:39:57 10° W 16:45:32 27° NNW 16:51:23 10° NNE daylight
04 Aug - 00:24:10 10° NNW 00:30:23 25° NNE 00:36:30 10° ENE night (unlit)
04 Aug - 02:17:16 10° NW 02:25:06 77° NNE 02:32:37 10° ESE visible
04 Aug - 04:12:47 10° W 04:19:30 34° SSW 04:25:56 10° SSE visible
04 Aug - 06:14:13 10° SSW 06:14:34 10° SSW 06:14:54 10° SSW daylight
04 Aug - 11:59:08 10° SSW 12:03:12 17° SSE 12:07:16 10° ESE daylight
04 Aug - 13:51:07 10° SW 13:57:31 62° SSE 14:04:08 10° ENE daylight
04 Aug - 15:45:38 10° W 15:51:38 36° NNW 15:57:56 10° NE daylight
04 Aug - 17:44:20 10° NW 17:46:40 12° NNW 17:49:02 10° N daylight
04 Aug - 23:30:57 10° NNW 23:36:12 19° NNE 23:41:27 10° ENE night (unlit)
05 Aug - 01:23:27 10° NW 01:31:08 57° NNE 01:38:37 10° ESE night (unlit)
05 Aug - 03:18:12 10° W 03:25:34 46° SSW 03:32:37 10° SE visible
05 Aug - 05:16:38 10° SW 05:20:23 14° SSW 05:24:03 10° S visible
05 Aug - 11:06:43 10° S 11:09:14 12° SSE 11:11:44 10° SE daylight
05 Aug - 12:57:42 10° SW 13:03:48 43° SSE 13:10:00 10° E daylight
05 Aug - 14:51:34 10° WSW 14:57:51 50° NNW 15:04:24 10° NE daylight
05 Aug - 16:48:45 10° WNW 16:52:31 15° NNW 16:56:24 10° NNE daylight
05 Aug - 22:38:03 10° N 22:41:58 14° NNE 22:45:53 10° NE visible
06 Aug - 00:29:47 10° NW 00:37:07 42° NNE 00:44:22 10° E night (unlit)
06 Aug - 02:23:52 10° WNW 02:31:37 63° SSW 02:39:06 10° SE visible
06 Aug - 04:21:00 10° WSW 04:26:17 20° SSW 04:31:24 10° SSE visible
06 Aug - 12:04:26 10° SSW 12:10:04 31° SSE 12:15:41 10° E daylight
06 Aug - 13:57:41 10° WSW 14:04:07 71° NNW 14:10:46 10° NE daylight
06 Aug - 15:53:47 10° WNW 15:58:30 20° NNW 16:03:23 10° NNE daylight
06 Aug - 21:46:07 10° N 21:47:38 11° NNE 21:49:10 10° NNE visible
06 Aug - 23:36:19 10° NNW 23:43:04 32° NNE 23:49:50 10° E night (unlit)
07 Aug - 01:29:46 10° WNW 01:37:40 85° SSW 01:45:23 10° ESE night (unlit)
07 Aug - 03:25:53 10° W 03:32:13 27° SSW 03:38:22 10° SSE visible
07 Aug - 11:11:18 10° SSW 11:16:15 22° SSE 11:21:08 10° ESE daylight
07 Aug - 13:03:57 10° WSW 13:10:26 82° SSE 13:17:00 10° ENE daylight
07 Aug - 14:59:12 10° W 15:04:36 27° NNW 15:10:10 10° NNE daylight
07 Aug - 22:43:02 10° NNW 22:48:58 24° NNE 22:54:59 10° ENE visible
08 Aug - 00:35:52 10° NW 00:43:41 73° NNE 00:51:28 10° ESE night (unlit)
08 Aug - 02:31:07 10° W 02:38:12 37° SSW 02:45:06 10° SE visible
08 Aug - 04:30:45 10° SW 04:33:21 12° SSW 04:35:55 10° S visible
08 Aug - 10:18:22 10° SSW 10:22:20 16° SSE 10:26:14 10° ESE daylight
08 Aug - 12:10:22 10° SW 12:16:45 58° SSE 12:23:06 10° ENE daylight
08 Aug - 14:04:53 10° W 14:10:47 37° NNW 14:16:50 10° NE daylight
08 Aug - 16:03:42 10° NW 16:05:37 11° NNW 16:07:33 10° N daylight
08 Aug - 21:50:00 10° NNW 21:54:49 18° NNE 21:59:43 10° ENE visible
08 Aug - 23:42:09 10° NW 23:49:42 54° NNE 23:57:20 10° ESE night (unlit)
09 Aug - 01:36:39 10° WNW 01:44:12 50° SSW 01:51:38 10° SE night (unlit)
09 Aug - 03:34:35 10° WSW 03:39:07 16° SSW 03:43:35 10° SSE visible
09 Aug - 09:25:49 10° S 09:28:18 12° SSE 09:30:45 10° SE daylight
09 Aug - 11:16:55 10° SW 11:23:02 41° SSE 11:29:03 10° E daylight
09 Aug - 13:10:47 10° WSW 13:17:04 53° NNW 13:23:23 10° NE daylight
09 Aug - 15:07:57 10° WNW 15:11:33 15° NNW 15:15:13 10° N daylight
09 Aug - 20:57:26 10° N 21:00:36 13° NNE 21:03:50 10° NE visible
09 Aug - 22:48:38 10° NW 22:55:42 40° NNE 23:02:56 10° E night (unlit)
10 Aug - 00:42:26 10° WNW 00:50:12 68° SSW 00:57:59 10° SE night (unlit)
10 Aug - 02:39:11 10° WSW 02:44:58 22° SSW 02:50:39 10° SSE visible
10 Aug - 10:23:33 10° SSW 10:29:15 29° SSE 10:34:47 10° E daylight
10 Aug - 12:16:51 10° WSW 12:23:22 76° NNW 12:29:50 10° NE daylight
10 Aug - 14:12:57 10° WNW 14:17:37 21° NNW 14:22:20 10° NNE daylight
10 Aug - 21:55:18 10° NNW 22:01:41 29° NNE 22:08:15 10° E visible
10 Aug - 23:48:27 10° WNW 23:56:14 89° SSW 00:04:08 10° ESE night (unlit)
11 Aug - 01:44:14 10° W 01:50:51 30° SSW 01:57:26 10° SSE night (unlit)
11 Aug - 09:30:19 10° SSW 09:35:23 22° SSE 09:40:16 10° ESE daylight
11 Aug - 11:23:04 10° SW 11:29:42 77° SSE 11:36:09 10° ENE daylight
11 Aug - 13:18:20 10° W 13:23:46 28° NNW 13:29:14 10° NNE daylight
11 Aug - 21:02:12 10° NNW 21:07:37 22° NNE 21:13:14 10° ENE visible
11 Aug - 22:54:41 10° NW 23:02:16 68° NNE 23:10:05 10° ESE night (unlit)
